Regional Weather Roundup
Issued by NWS

Home | Current Version | Previous Version | Graphics & Text | Print | Product List | Glossary On
Versions: 1 2 3 4 5 6 7 8 9 10 11 12 13 14 15 16 17 18 19 20 21 22 23 24 25 26 27 28 29 30 31 32 33 34 35 36 37 38 39 40 41 42 43 44 45 46 47 48 49 50
000
ASUS43 KIND 201009
RWRIN

WEATHER ROUNDUP FOR INDIANA
NATIONAL WEATHER SERVICE INDIANAPOLIS IN
600 AM EDT SUN APR 20 2014

NOTE: "FAIR" INDICATES FEW OR NO CLOUDS BELOW 12,000 FEET WITH NO
SIGNIFICANT WEATHER AND/OR OBSTRUCTIONS TO VISIBILITY.

* - STATION DOES NOT REPORT WEATHER SUCH AS PRECIPITATION OR FOG.

+ - STATION NOT QUALITY CONTROLLED BY THE NATIONAL WEATHER SERVICE.
    USE DATA WITH CAUTION...ESPECIALLY DEWPOINT AND RELATIVE
    HUMIDITY OBSERVATIONS.

INZ001>003-010>013-019-020-201100-
NORTHWEST INDIANA

CITY           SKY/WX    TMP DP  RH WIND       PRES   REMARKS
GARY /AIRPORT/ CLEAR     48  25  40 SE20      30.23F
LA PORTE +     CLEAR     36  28  71 SE3       30.27S
MICHIGAN CITY+ CLEAR     43  27  52 SE7       30.25F
MONTICELLO +   CLEAR     42  28  58 CALM      30.25S
RENSSELAER +   CLEAR     41  30  65 E7        30.24F
VALPARAISO     CLEAR     38  26  62 E5        30.26S

$$

LMZ046-743>745-201100-
SOUTHERN LAKE MICHIGAN

STATION/POSITION TIME  TEMP WIND        PRES
                       AIR  DIR/SP/G
                 (UTC) (F)  (DEG/KT/KT) (MB)
MICHIGAN CITY    1000   45  120/ 14/ 18   N/A

$$

INZ004-005-014>016-021>024-201100-
NORTH CENTRAL INDIANA

CITY           SKY/WX    TMP DP  RH WIND       PRES   REMARKS
GOSHEN         CLEAR     39  28  64 SE3       30.28R
LOGANSPORT +   PTCLDY    36  30  80 E5        30.27S
PERU/GRISSOM   PTCLDY    40  32  72 E5        30.25F
ROCHESTER +    PTCLDY    41  32  70 E6        30.27S
SOUTH BEND     CLEAR     41  28  60 E7        30.28S
WARSAW +       CLEAR     37  30  75 E5        30.28S

$$

INZ006>009-017-018-025>027-201100-
NORTHEAST INDIANA

CITY           SKY/WX    TMP DP  RH WIND       PRES   REMARKS
ANGOLA *+      CLEAR     37  30  75 SE7       30.28F
AUBURN +       CLEAR     36  30  80 NE3       30.29S
FORT WAYNE     PTCLDY    35  28  75 E5        30.29F WCI  31

$$

INZ028-029-035-036-043>045-051>053-201100-
WEST CENTRAL INDIANA

CITY           SKY/WX    TMP DP  RH WIND       PRES   REMARKS
GREENCASTLE +  CLEAR     43  34  70 E5        30.24S
LAFAYETTE      CLEAR     41  30  65 E6        30.25S
TERRE HAUTE    CLEAR     46  36  68 CALM      30.23S

$$

INZ030>032-037>040-046>048-054>057-064-065-201100-
CENTRAL INDIANA

CITY           SKY/WX    TMP DP  RH WIND       PRES   REMARKS
CP ATTERBURY + PTCLDY    37  36  93 CALM      30.25F
INDIANAPOLIS   MOCLDY    44  32  62 NE6       30.24F
-EAGLE CREEK   CLEAR     44  30  57 CALM      30.24F
KOKOMO *+      PTCLDY    37  28  70 E6        30.26F
MARION +       CLEAR     38  28  67 E6        30.27S
MT COMFORT *+  CLEAR     39  32  75 CALM      30.25F
SHELBYVILLE    PTCLDY    44  33  65 E9        30.25S
ZIONSVILLE +   CLEAR     42  30  63 E3        30.25F

$$

INZ033-034-041-042-049-050-058-059-201100-
EAST CENTRAL INDIANA

CITY           SKY/WX    TMP DP  RH WIND       PRES   REMARKS
MUNCIE         PTCLDY    37  29  72 E6        30.27F

$$

INZ060-061-067>069-081>083-085>088-201100-
SOUTHWEST INDIANA

CITY           SKY/WX    TMP DP  RH WIND       PRES   REMARKS
EVANSVILLE     CLEAR     51  39  63 N3        30.22R
HUNTINGBURG *+ CLEAR     48  36  61 E5        30.22S
WASHINGTON +   CLEAR     49  38  66 CALM      30.22S

$$

INZ062-063-066-070>080-084-089>092-201100-
SOUTH CENTRAL AND SOUTHEAST INDIANA

CITY           SKY/WX    TMP DP  RH WIND       PRES   REMARKS
BLOOMINGTON    CLEAR     42  35  76 CALM      30.23S

$$




USA.gov is the U.S. government's official web portal to all federal, state and local government web resources and services.